Flag for Germany Weather for the Past 2 Weeks in Bietigheim-Bissingen, Baden-Württemberg, Germany

Now
54 °F

Passing clouds.


Feels Like: 53 °F
Forecast: 42 / 60 °F
Wind: 5 mph from Northeast

Location: Stuttgart-Echterdingen

Current Time: May 2, 2016 at 10:19:43 AM

Latest Report: May 2, 2016 at 9:50 AM


Visibility: N/A

Pressure: 30.21 "Hg

Humidity: 67%

Dew Point: 43 °F

Location of Bietigheim-BissingenLocation

Historic Weather in Bietigheim-Bissingen — Graph

°F

Bietigheim-Bissingen Temperature Yesterday

Maximum temperature yesterday: 59 °F (at 4:20 PM)
Minimum temperature yesterday: 43 °F (at 6:20 AM)
Average temperature yesterday: 51 °F

High & Low Weather Summary for the Past Weeks

 TemperatureHumidityPressure
High68 °F (Apr 21, 3:50 PM)100% (Apr 18, 4:50 AM)30.39 "Hg (Apr 18, 4:50 AM)
Low30 °F (Apr 29, 3:50 AM)24% (Apr 21, 6:20 PM)29.56 "Hg (Apr 26, 5:50 AM)
Average46 °F72%30.00 "Hg
* Reported Apr 17 9:20 AM — May 2 9:20 AM, Bietigheim-Bissingen, Weather by CustomWeather, © 2016

Note: Actual official high and low records may vary slightly from our data, if they occured in-between our weather recording intervals... More about our weather records

Advertising

Bietigheim-Bissingen Weather History for the Previous 24 Hours

Scroll right to see more
 ConditionsComfort  
Time TempWeatherWind HumidityBarometerVisibility
9:20 AM
Mon, May 2
52 °FScattered clouds.5 mph67%30.21 "HgN/A
8:50 AM50 °FPassing clouds.6 mph71%30.21 "HgN/A
8:20 AM48 °FPassing clouds.6 mph76%30.21 "HgN/A
7:20 AM45 °FPassing clouds.3 mph87%30.21 "HgN/A
6:50 AM45 °FClear.5 mph81%30.21 "Hg10 mi
6:20 AM45 °FClear.6 mph81%30.18 "Hg10 mi
5:20 AM45 °FClear.9 mph81%30.18 "Hg10 mi
4:50 AM45 °FClear.7 mph81%30.18 "Hg10 mi
4:20 AM45 °FClear.7 mph81%30.18 "Hg10 mi
3:50 AM46 °FClear.8 mph82%30.18 "Hg10 mi
3:20 AM48 °FClear.8 mph76%30.18 "Hg10 mi
2:50 AM48 °FClear.7 mph76%30.18 "Hg10 mi
2:20 AM48 °FClear.7 mph76%30.18 "Hg10 mi
1:50 AM48 °FClear.5 mph82%30.18 "Hg10 mi
1:20 AM48 °FClear.3 mph82%30.18 "Hg10 mi
12:50 AM48 °FClear.1 mph82%30.18 "Hg10 mi
12:20 AM50 °FPartly cloudy.1 mph82%30.18 "HgN/A
11:50 PM
Sun, May 1
50 °FPartly cloudy.3 mph82%30.18 "HgN/A
10:50 PM50 °FSprinkles. Partly cloudy.6 mph82%30.18 "HgN/A
10:20 PM52 °FLots of rain. Passing clouds.21 mph72%30.18 "HgN/A
9:50 PM54 °FSprinkles. Partly cloudy.3 mph77%30.15 "HgN/A
9:20 PM55 °FBroken clouds.8 mph67%30.15 "HgN/A
8:50 PM55 °FSunny.9 mph59%30.12 "Hg10 mi
8:20 PM57 °FSunny.9 mph55%30.12 "Hg10 mi
7:50 PM57 °FBroken clouds.10 mph59%30.09 "HgN/A
7:20 PM57 °FBroken clouds.10 mph59%30.09 "HgN/A
6:50 PM57 °FSprinkles. Partly sunny.10 mph59%30.09 "HgN/A
6:20 PM57 °FPartly sunny.12 mph63%30.07 "HgN/A
5:50 PM55 °FScattered showers. Partly sunny.12 mph67%30.07 "HgN/A
5:20 PM55 °FScattered showers. Partly sunny.7 mph63%30.07 "HgN/A
4:50 PM59 °FSprinkles. Broken clouds.14 mph51%30.04 "HgN/A
4:20 PM59 °FScattered showers. Broken clouds.16 mph51%30.04 "HgN/A
3:50 PM57 °FSprinkles. Broken clouds.12 mph63%30.04 "HgN/A
3:20 PM57 °FSprinkles. Partly sunny.14 mph67%30.04 "HgN/A
2:50 PM57 °FSprinkles. Partly sunny.15 mph59%30.04 "HgN/A
2:20 PM57 °FScattered clouds.10 mph63%30.04 "HgN/A
1:50 PM57 °FBroken clouds.12 mph67%30.04 "HgN/A
1:20 PM54 °FBroken clouds.14 mph72%30.04 "HgN/A
12:50 PM54 °FPartly sunny.12 mph72%30.04 "HgN/A
12:20 PM52 °FPartly sunny.10 mph72%30.04 "HgN/A
11:50 AM52 °FPartly sunny.8 mph77%30.04 "HgN/A
11:20 AM50 °FPartly sunny.12 mph76%30.04 "HgN/A
10:50 AM50 °FPartly sunny.12 mph76%30.01 "HgN/A
10:20 AM48 °FPartly sunny.12 mph82%30.01 "HgN/A
Weather by CustomWeather, © 2016

See weather overviewHow to use our weather pages